Content
SEND FEEDBACK

Daily
Averages
Monthly
Summary
United States of America

ST. LOUIS, MISSOURI


Home > North America > United States > Missouri
Elevation: 535 feet     Latitude: 38 45N     Longitude: 090 22W

WEATHER
 
SELECT A DAY
Number of Records: 199,638;   Date Range: 1/1/95 - 10/20/14
 
SHARE

PRINT THIS DATA

[ ← Previous Day ]
WEATHER ALMANAC - FEBRUARY 9, 2013
[ Next Day → ]
[ °C ]   °F
Weather ElementAverageHighLow
Temperature36.2 °F43 °F (2:54 pm)30 °F (1:54 am)
Dewpoint26.6 °F35.1 °F (11:54 pm)24.1 °F (1:54 am)
Humidity69 %83 % (11:54 pm)53 % (2:54 pm)
Barometer30.23 in30.39 in (2:54 am)30.02 in (11:54 pm)
Wind Speed7.5 mph11.5 mph (11:54 am)
Wind Gust18.4 mph (11:54 am)
Weather ElementAverage
Visibility9.7 mi
Wind DirectionESE (128.3 °)

Weather ElementTotal
Precipitation0.07 in
Heating Degree Days28.5 (Base 65)
Averaged from 23 records on February 9, 2013
WEATHER CONDITIONS BREAKOUT
WIND DIRECTION BREAKOUT
WEATHER BY HOUR - FEBRUARY 9, 2013
[ °C ]   °F
Local TimeTemperatureDewpointHumidityBarometerVisibilityWind DirectionWind SpeedGust SpeedPrecipitationEventsConditions
1:54 AM30.0 °F24.1 °F79 %30.38 in10.0 miEast (100°)6.9 mphOvercast
2:54 AM30.0 °F24.1 °F79 %30.39 in10.0 miVariable5.8 mphOvercast
3:54 AM30.2 °F24.8 °F80 %30.35 in10.0 miSE (140°)3.5 mphOvercast
4:54 AM30.0 °F24.1 °F79 %30.36 in10.0 miSE (130°)4.6 mphOvercast
5:54 AM30.0 °F24.1 °F79 %30.35 in10.0 miESE (120°)5.8 mphOvercast
6:54 AM30.0 °F24.1 °F79 %30.35 in10.0 miSSE (160°)6.9 mphOvercast
7:54 AM30.9 °F24.1 °F76 %30.38 in10.0 miSE (140°)5.8 mphOvercast
8:54 AM30.9 °F24.1 °F76 %30.36 in10.0 miESE (110°)6.9 mphOvercast
9:54 AM32.0 °F24.1 °F73 %30.35 in10.0 miSSE (160°)9.2 mphOvercast
10:54 AM34.0 °F25.0 °F70 %30.34 in10.0 miESE (110°)6.9 mphOvercast
11:54 AM37.0 °F26.1 °F65 %30.31 in10.0 miESE (110°)11.5 mph18.4 mphOvercast
12:54 PM39.0 °F26.1 °F60 %30.25 in10.0 miESE (120°)10.4 mphMostly Cloudy
1:54 PM41.0 °F27.0 °F57 %30.21 in10.0 miSE (130°)9.2 mphMostly Cloudy
2:54 PM43.0 °F27.0 °F53 %30.18 in10.0 miSE (130°)8.1 mphClear
3:54 PM43.0 °F27.0 °F53 %30.13 in10.0 miESE (110°)11.5 mph18.4 mphMostly Cloudy
4:54 PM41.0 °F27.0 °F57 %30.12 in10.0 miSE (140°)5.8 mph16.1 mphOvercast
5:54 PM39.9 °F27.0 °F60 %30.12 in10.0 miESE (110°)5.8 mphOvercast
6:54 PM39.9 °F27.0 °F60 %30.12 in10.0 miSSE (150°)10.4 mphMostly Cloudy
7:54 PM41.0 °F27.0 °F57 %30.11 in10.0 miSE (140°)5.8 mphOvercast
8:54 PM41.0 °F28.0 °F60 %30.09 in10.0 miSouth (170°)9.2 mph0.00 inRainLight Rain
9:54 PM39.9 °F32.0 °F73 %30.06 in10.0 miSSE (150°)10.4 mph0.01 inRainLight Rain
10:54 PM39.9 °F34.0 °F79 %30.06 in5.0 miSouth (170°)5.8 mph0.03 inRainLight Rain
11:54 PM39.9 °F35.1 °F83 %30.02 in7.0 miSSE (150°)6.9 mph0.03 inRainLight Rain
Hourly data recorded from KSUS, located miles away from St. Louis, Missouri







STORIES FROM OUR PARTNERS